sat.trackr.live / text

‹ back to catalog

QIANFAN-174

NORAD 69391 · 2026-124K

PAYLOAD ACTIVE UNKNOWN

§ Identity

Operator
Country
PRC
Launch date
2026-06-04
Launch site
TAISC
Launch vehicle
Mass (kg)
RCS (m²)

External: N2YO · Heavens-Above · Gunter

§ Orbital elements

Epoch: 2026-09-20T04:51:04.747392Z

Period
106.59 min
Inclination
89.0042°
Eccentricity
0.0002242
Mean motion
13.51030581 rev/d
Perigee alt
1,066.8 km
Apogee alt
1,070.1 km
Semi-major
7,446.6 km
B*
1.5409e-4
RAAN
351.9776°
Arg perigee
108.7639°
Mean anomaly
251.3756°
Rev number
1,489

§ Raw data

QIANFAN-1741 69391U 26124K   26263.20213828  .00000112  00000+0  15409-3 0  99932 69391  89.0042 351.9776 0002242 108.7639 251.3756 13.51030581 14893

JSON: /api/v1/satellites/69391 · /tle

For live sub-satellite position, see the globe view (requires WebGL).

§ Visibility from observer

Set your observer location to see the next 7 days of passes ≥ 10°. The values pass through the URL so the page stays shareable.

No JS? Fill the form by hand. The geolocation button needs JavaScript.